[[{"header":{"parameterUnit":"m.s-1","parameterCategory":1,"la1":30.2991,"la2":30.254,"lo1":-89.0895,"lo2":-89.0444,"dy":0.0017,"dx":0.0017,"nx":28,"ny":28,"refTime":"2025-03-13T09:00:00:Z","depth":0,"parameterNumber":2,"parameterNumberName":"U-component_of_WINDS"},"data":[0,0,0,0,0,0,0,0,0,0,0,0,0,0,0,0,0,0,0,0,0,0,0,0,0,0,0,0,0,0,0,0,0,0,0,0,0,0,0,0,0,0,0,0,0,0,0,0,0,0,0,0,0,0,0,0,0,0,-0.349,-0.349,0,-0.342,-0.3419,-0.3418,-0.3381,-0.3381,-0.3381,-0.338,-0.3304,-0.3302,-0.33,0,0,0,0,0,0,0,0,0,0,0,0,0,-0.3589,-0.3587,-0.349,-0.3489,-0.3489,-0.342,-0.3419,-0.3418,-0.3381,-0.3381,-0.3381,-0.338,-0.3305,-0.3302,-0.33,0,0,0,0,0,0,0,0,0,0,0,0,0,-0.3535,-0.3586,-0.349,-0.3462,-0.3459,-0.342,-0.3419,-0.3417,-0.3381,-0.3381,-0.3381,-0.338,-0.3305,-0.3303,-0.33,-0.3283,0,0,-0.329,-0.3289,0,0,0,0,0,0,0,0,-0.3538,-0.3531,-0.3467,-0.3464,-0.346,-0.3409,-0.3425,-0.3372,-0.3381,-0.341,-0.338,-0.338,-0.3339,-0.3333,-0.332,-0.3279,-0.3276,-0.329,-0.3288,-0.3287,-0.3286,0,0,0,0,0,0,0,-0.3541,-0.3534,-0.3462,-0.3466,-0.3462,-0.3451,-0.3443,-0.3415,-0.3376,-0.3408,-0.3405,-0.3397,-0.3337,-0.3323,-0.3318,-0.3275,-0.329,-0.3288,-0.3286,-0.3285,-0.3215,-0.3215,0,0,0,0,0,0,-0.355,-0.3537,-0.3464,-0.346,-0.35,-0.3449,-0.3441,-0.3425,-0.3376,-0.3368,-0.3397,-0.3396,-0.3328,-0.3321,-0.3315,-0.3291,-0.3287,-0.3284,-0.3283,-0.3215,-0.3215,-0.3215,0,0,0,0,0,0,-0.3553,-0.3544,-0.3467,-0.3498,-0.3487,-0.3448,-0.3431,-0.3424,-0.341,-0.3368,-0.336,-0.339,-0.3328,-0.3319,-0.3291,-0.3288,-0.3283,-0.328,-0.3215,-0.3215,-0.3215,-0.3243,0,0,0,0,0,0,-0.3556,-0.3545,-0.354,-0.3498,-0.3486,-0.3446,-0.3431,-0.3423,-0.3405,-0.3403,-0.336,-0.3352,-0.3327,-0.3296,-0.3288,-0.3283,-0.3278,-0.3215,-0.3215,-0.3215,-0.3242,-0.3244,-0.3246,0,0,0,0,0,-0.3559,-0.355,-0.354,-0.3531,-0.3478,-0.3446,-0.3439,-0.3411,-0.3405,-0.3398,-0.3371,-0.3354,-0.3289,-0.3293,-0.3284,-0.3279,-0.3215,-0.3215,-0.3215,-0.3242,-0.3244,-0.3246,0,0,0,0,0,0,-0.3591,-0.3544,-0.3532,-0.3509,-0.3482,-0.344,-0.3431,-0.3414,-0.3387,-0.3385,-0.335,-0.3341,-0.3315,-0.3294,-0.3299,-0.3259,-0.325,-0.3248,-0.3274,-0.3275,-0.3277,-0.3282,-0.3275,0,0,0,0,0,-0.3596,-0.3575,-0.3535,-0.3518,-0.3505,-0.3471,-0.3455,-0.3436,-0.3406,-0.3394,-0.3365,-0.3335,-0.3307,-0.329,-0.3263,-0.3239,-0.3228,-0.3231,-0.3232,-0.3234,-0.3232,-0.3217,-0.3217,-0.3214,-0.3214,-0.3214,0,0,-0.3605,-0.3577,-0.3566,-0.3524,-0.3501,-0.3478,-0.3461,-0.3438,-0.3421,-0.339,-0.3362,-0.3339,-0.3303,-0.3277,-0.3264,-0.3258,-0.3231,-0.3234,-0.3235,-0.3233,-0.3216,-0.3217,-0.3217,-0.3214,-0.3214,-0.3214,0,0,-0.361,-0.3587,-0.3571,-0.3548,-0.3513,-0.3489,-0.3485,-0.3445,-0.3429,-0.3401,-0.3376,-0.3354,-0.3309,-0.3284,-0.3265,-0.3259,-0.3242,-0.3251,-0.326,-0.3245,-0.3245,-0.3245,-0.3242,-0.3241,-0.325,-0.325,-0.325,0,-0.3625,-0.3592,-0.3564,-0.3542,-0.3524,-0.3496,-0.3478,-0.3456,-0.3414,-0.3401,-0.3396,-0.3337,-0.3311,-0.3278,-0.3277,-0.3263,-0.3256,-0.3256,-0.3247,-0.3247,-0.3247,-0.3243,-0.3242,-0.3252,-0.3251,-0.3251,-0.3251,0,-0.3612,-0.3589,-0.358,-0.354,-0.3521,-0.3501,-0.3468,-0.3452,-0.3434,-0.3411,-0.3381,-0.3349,-0.3314,-0.3304,-0.3286,-0.3268,-0.3266,-0.3254,-0.3245,-0.3249,-0.3245,-0.3243,-0.3254,-0.3253,-0.3253,-0.3252,0,0,-0.3635,-0.358,-0.3577,-0.3558,-0.3517,-0.3498,-0.3477,-0.3444,-0.343,-0.3401,-0.3381,-0.3342,-0.3331,-0.331,-0.3289,-0.3276,-0.3272,-0.3266,-0.3265,-0.3267,-0.3248,-0.3256,-0.3255,-0.326,-0.326,-0.326,-0.3251,0,-0.3633,-0.3595,-0.3568,-0.3539,-0.3517,-0.3489,-0.347,-0.3442,-0.3419,-0.3396,-0.337,-0.3343,-0.3331,-0.3318,-0.3304,-0.3276,-0.3267,-0.3276,-0.3239,-0.3238,-0.3249,-0.3254,-0.3262,-0.3256,-0.3249,-0.3249,-0.3249,0,-0.3627,-0.36,-0.3569,-0.3529,-0.3519,-0.3502,-0.3469,-0.3448,-0.3414,-0.3399,-0.3375,-0.3353,-0.3327,-0.332,-0.3283,-0.3289,-0.3273,-0.3256,-0.3255,-0.325,-0.3244,-0.3248,-0.3253,-0.3252,-0.3246,-0.3246,-0.3247,0,-0.3645,-0.3601,-0.3577,-0.3562,-0.3515,-0.3504,-0.3484,-0.3451,-0.3432,-0.3403,-0.339,-0.3358,-0.334,-0.3314,-0.3284,-0.3282,-0.3249,-0.324,-0.3234,-0.3234,-0.3227,-0.3228,-0.3229,-0.3218,-0.3218,-0.3218,-0.3218,0,-0.3646,-0.3628,-0.3585,-0.357,-0.3548,-0.3516,-0.3495,-0.3472,-0.3443,-0.3422,-0.3395,-0.3376,-0.3337,-0.3312,-0.3287,-0.326,-0.3252,-0.3237,-0.3231,-0.3239,-0.3241,-0.3227,-0.3227,-0.3218,-0.3218,-0.3218,-0.3218,0,-0.3663,-0.3634,-0.3605,-0.3563,-0.3552,-0.3538,-0.3502,-0.3485,-0.3461,-0.3434,-0.3426,-0.3387,-0.3356,-0.3324,-0.3281,-0.3265,-0.3237,-0.3229,-0.3249,-0.3245,-0.3241,-0.3241,-0.3233,-0.3229,-0.3221,-0.3221,-0.3222,0,-0.3665,-0.365,-0.3607,-0.3592,-0.3573,-0.3548,-0.3529,-0.3497,-0.3478,-0.3439,-0.3426,-0.3394,-0.3366,-0.3318,-0.3285,-0.3252,-0.3242,-0.3241,-0.3236,-0.3245,-0.324,-0.3241,-0.3239,-0.3242,-0.3242,-0.3243,-0.3243,0,-0.3671,-0.3657,-0.3632,-0.3601,-0.3579,-0.3553,-0.3526,-0.3514,-0.3477,-0.3456,-0.3425,-0.3404,-0.3361,-0.3328,-0.3291,-0.3268,-0.3249,-0.3245,-0.3241,-0.3249,-0.3261,-0.3254,-0.3252,-0.3245,-0.3245,-0.3244,-0.3244,-0.3244,-0.368,-0.3665,-0.3633,-0.3605,-0.3581,-0.3556,-0.3538,-0.3512,-0.3486,-0.3449,-0.3431,-0.34,-0.3365,-0.3314,-0.3291,-0.3265,-0.3259,-0.3255,-0.3253,-0.3252,-0.3254,-0.3266,-0.3258,-0.3258,-0.3258,-0.3258,-0.3258,0,-0.3684,-0.3661,-0.3636,-0.3599,-0.3577,-0.3562,-0.3531,-0.3513,-0.3486,-0.3456,-0.3429,-0.3392,-0.336,-0.3325,-0.329,-0.3276,-0.3266,-0.3268,-0.3268,-0.3263,-0.3262,-0.3268,-0.3276,-0.3276,-0.3276,-0.3276,-0.3276,-0.3276,-0.3683,-0.3657,-0.3639,-0.3601,-0.3578,-0.3548,-0.3531,-0.3507,-0.3483,-0.3444,-0.3418,-0.3396,-0.3363,-0.3326,-0.3295,-0.3285,-0.3273,-0.3278,-0.3265,-0.3265,-0.3263,-0.3262,-0.3267,-0.3275,-0.3275,-0.3268,-0.3268,-0.3268]},{"header":{"parameterUnit":"m.s-1","parameterCategory":1,"la1":30.2991,"la2":30.254,"lo1":-89.0895,"lo2":-89.0444,"dy":0.0017,"dx":0.0017,"nx":28,"ny":28,"refTime":"2025-03-13T09:00:00:Z","depth":0,"parameterNumber":3,"parameterNumberName":"V-component_of_WINDS"},"data":[0,0,0,0,0,0,0,0,0,0,0,0,0,0,0,0,0,0,0,0,0,0,0,0,0,0,0,0,0,0,0,0,0,0,0,0,0,0,0,0,0,0,0,0,0,0,0,0,0,0,0,0,0,0,0,0,0,0,2.1224,2.1225,0,2.1267,2.1268,2.1268,2.1287,2.1287,2.1287,2.1287,2.1328,2.1329,2.1331,0,0,0,0,0,0,0,0,0,0,0,0,0,2.1158,2.1159,2.1224,2.1225,2.1225,2.1267,2.1268,2.1268,2.1287,2.1287,2.1287,2.1287,2.1328,2.1329,2.1331,0,0,0,0,0,0,0,0,0,0,0,0,0,2.1192,2.116,2.1224,2.124,2.1242,2.1267,2.1268,2.1268,2.1287,2.1287,2.1287,2.1287,2.1327,2.1329,2.1331,2.1343,0,0,2.1336,2.1337,0,0,0,0,0,0,0,0,2.119,2.1195,2.1237,2.1239,2.1241,2.1272,2.126,2.1293,2.1287,2.127,2.1287,2.1286,2.1309,2.1313,2.1321,2.1345,2.1347,2.1336,2.1337,2.1338,2.1339,0,0,0,0,0,0,0,2.1188,2.1193,2.1241,2.1237,2.124,2.1244,2.1249,2.1266,2.1289,2.1271,2.1272,2.1277,2.131,2.1319,2.1322,2.1348,2.1336,2.1338,2.1339,2.134,2.1388,2.1388,0,0,0,0,0,0,2.1183,2.1191,2.124,2.1242,2.1215,2.1246,2.1251,2.1262,2.1289,2.1293,2.1277,2.1278,2.1316,2.132,2.1323,2.1342,2.1338,2.134,2.1341,2.1387,2.1388,2.1388,0,0,0,0,0,0,2.1182,2.1187,2.1238,2.1217,2.1224,2.1247,2.1259,2.1263,2.1271,2.1294,2.1298,2.1282,2.1316,2.1321,2.1339,2.1344,2.1341,2.1342,2.1387,2.1387,2.1388,2.1378,0,0,0,0,0,0,2.118,2.1187,2.1192,2.1217,2.1225,2.1253,2.1259,2.1263,2.1275,2.1276,2.13,2.1303,2.1316,2.1336,2.1341,2.1346,2.1344,2.1387,2.1387,2.1388,2.1378,2.1378,2.1377,0,0,0,0,0,2.1177,2.1186,2.1192,2.1198,2.1232,2.1253,2.1258,2.1273,2.1275,2.128,2.1295,2.1303,2.1342,2.1338,2.1343,2.1349,2.1387,2.1387,2.1388,2.1378,2.1378,2.1377,0,0,0,0,0,0,2.1159,2.119,2.1196,2.1214,2.1231,2.1256,2.1263,2.1272,2.1289,2.1289,2.1307,2.1312,2.1329,2.1341,2.1336,2.1364,2.1365,2.1367,2.1356,2.1356,2.1356,2.1353,2.1345,0,0,0,0,0,2.1157,2.1173,2.1198,2.1211,2.1219,2.124,2.125,2.1261,2.1279,2.1286,2.1302,2.1319,2.1336,2.1346,2.1363,2.1379,2.1386,2.1386,2.1386,2.1385,2.1387,2.1399,2.14,2.139,2.139,2.139,0,0,2.1153,2.1172,2.118,2.1208,2.1222,2.1238,2.1246,2.1261,2.1274,2.1288,2.1307,2.132,2.134,2.1358,2.1367,2.1368,2.1391,2.1386,2.1386,2.1387,2.1399,2.14,2.1401,2.139,2.139,2.139,0,0,2.1154,2.1169,2.1183,2.1198,2.1221,2.1235,2.1238,2.1263,2.1272,2.1292,2.1304,2.1318,2.1346,2.1361,2.1372,2.1381,2.1389,2.1386,2.1385,2.1397,2.1398,2.1398,2.1404,2.1405,2.1387,2.1387,2.1387,0,2.1146,2.1171,2.1188,2.1205,2.1217,2.1232,2.1247,2.126,2.1287,2.1295,2.1296,2.1333,2.1347,2.1371,2.1373,2.1381,2.1386,2.1383,2.1396,2.1397,2.1398,2.1403,2.1405,2.1386,2.1386,2.1386,2.1386,0,2.1161,2.1178,2.1186,2.1213,2.1227,2.1241,2.1261,2.1273,2.1283,2.1297,2.1318,2.1336,2.1357,2.1363,2.1372,2.1388,2.1389,2.1393,2.1395,2.1398,2.1404,2.1406,2.1386,2.1386,2.1386,2.1386,0,0,2.115,2.1189,2.1192,2.1206,2.1233,2.1246,2.1262,2.1285,2.1295,2.1313,2.1328,2.1352,2.1357,2.1369,2.1381,2.139,2.1399,2.1394,2.1394,2.1395,2.142,2.1418,2.142,2.1405,2.1405,2.1405,2.1419,0,2.1156,2.1187,2.1205,2.1228,2.1245,2.1261,2.1276,2.1294,2.1308,2.1324,2.1339,2.1357,2.1361,2.1369,2.138,2.1396,2.1405,2.1395,2.1419,2.142,2.1415,2.1422,2.1419,2.1431,2.1421,2.1421,2.1421,0,2.1167,2.1187,2.1213,2.1241,2.1249,2.1261,2.1285,2.13,2.1322,2.1331,2.1347,2.1358,2.1377,2.1377,2.1403,2.1396,2.1407,2.1417,2.1418,2.1422,2.1422,2.1427,2.1435,2.1437,2.1424,2.1424,2.1424,0,2.1159,2.1192,2.1213,2.1224,2.1256,2.1265,2.1279,2.1301,2.1314,2.1334,2.1343,2.1364,2.1376,2.1392,2.141,2.1408,2.1435,2.1436,2.1444,2.1444,2.145,2.1449,2.1461,2.1455,2.1455,2.1454,2.1454,0,2.1165,2.118,2.121,2.1223,2.1241,2.1261,2.1279,2.1294,2.1314,2.133,2.1344,2.1359,2.1381,2.1398,2.1412,2.1433,2.1437,2.1446,2.145,2.1446,2.1445,2.1454,2.1454,2.1455,2.1455,2.1455,2.1455,0,2.1159,2.118,2.1203,2.1233,2.1241,2.1254,2.1279,2.1292,2.1308,2.1328,2.1334,2.1358,2.138,2.1399,2.1427,2.1436,2.1458,2.1462,2.1451,2.1453,2.1461,2.1461,2.148,2.1484,2.1473,2.1473,2.1474,0,2.1162,2.1174,2.1206,2.1219,2.1233,2.1253,2.1267,2.1288,2.1302,2.1329,2.1339,2.1362,2.1382,2.1416,2.1436,2.1458,2.1463,2.1468,2.1467,2.1463,2.1465,2.1465,2.1467,2.1469,2.1469,2.1469,2.1469,0,2.1165,2.1175,2.1195,2.122,2.1237,2.1257,2.1277,2.1287,2.1311,2.1326,2.135,2.1365,2.1395,2.1419,2.1444,2.1458,2.1468,2.1469,2.1473,2.1469,2.1463,2.1468,2.1453,2.1469,2.1469,2.1469,2.1469,2.1469,2.1164,2.1178,2.1203,2.1226,2.1244,2.1263,2.1278,2.1296,2.1317,2.1344,2.1354,2.1379,2.1402,2.1437,2.1451,2.147,2.1472,2.1476,2.1478,2.1479,2.1479,2.1459,2.1475,2.1475,2.1475,2.1475,2.1475,0,2.117,2.1188,2.1209,2.1238,2.1256,2.1265,2.1289,2.1304,2.1325,2.1347,2.1367,2.1395,2.1418,2.144,2.1465,2.1476,2.1481,2.1482,2.1482,2.1485,2.1475,2.1471,2.1477,2.1477,2.1477,2.1477,2.1477,2.1477,2.1175,2.1198,2.1212,2.1245,2.1263,2.1288,2.1301,2.1319,2.1337,2.1368,2.1388,2.1403,2.1425,2.1452,2.1474,2.148,2.1489,2.1489,2.1496,2.1486,2.1486,2.1485,2.1481,2.149,2.149,2.1505,2.1505,2.1505]}]]